Hourly Weather Roundup
Issued by NWS Central Illinois

Home | Current Version | Previous Version | Text Only | Print | Product List | Glossary On
Versions: 1 2 3 4 5 6 7 8 9 10 11 12 13 14 15 16 17 18 19 20 21 22 23 24 25 26 27 28 29 30 31 32 33 34 35 36 37 38 39 40 41 42 43 44 45 46 47 48 49 50
000
NZUS43 KILX 100910
HWRILX

AREA WEATHER ROUNDUP
NATIONAL WEATHER SERVICE, LINCOLN IL
400 AM CDT THU JUL 10 2014


CITY           SKY/WX    TMP DP  RH WIND       PRES   REMARKS
BLOOMINGTON    CLEAR     58  54  86 CALM      30.11S
CHAMPAIGN      CLEAR     62  56  80 NE7       30.09S
DECATUR        CLEAR     57  55  93 NE5       30.09S
EFFINGHAM      PTCLDY    61  57  88 CALM      30.08S
FLORA          CLEAR     62  59  91 CALM      30.07S
GALESBURG      CLEAR     57  56  96 CALM      30.09S
JACKSONVILLE   PTCLDY    59  58  95 CALM      30.10S
LACON          CLEAR     56  54  92 CALM      30.08F
LAWRENCEVILLE  CLEAR     62  59  90 N3        30.07R
LITCHFIELD     MOCLDY    59  57  92 CALM      30.08S
$$


CITY           SKY/WX    TMP DP  RH WIND       PRES   REMARKS
LINCOLN        CLEAR     58  56  94 CALM      30.07S
MACOMB         CLEAR     55  55  99 CALM      30.11S
MATTOON        PTCLDY    58  55  90 N3        30.07F
MT CARMEL AP   PTCLDY    63  61  94 CALM      30.06S
OLNEY-NOBLE AP PTCLDY    59  57  94 CALM      30.07S
PARIS          PTCLDY    55  55  97 CALM      30.08F
PEORIA         CLEAR     61  57  87 CALM      30.09S
PONTIAC        CLEAR     55  54  94 CALM      30.10S
RANTOUL        CLEAR     64  55  75 NE3       30.10S
ROBINSON       PTCLDY    59  58  97 CALM      30.08S
SPRINGFIELD    CLEAR     58  56  93 CALM      30.09S
TAYLORVILLE    PTCLDY    55  54  94 CALM      30.09R
$$

...REGIONAL REPORTS...


CITY           SKY/WX    TMP DP  RH WIND       PRES   REMARKS
CHICAGO O`HARE CLEAR     61  55  81 CALM      30.10S
KANKAKEE       CLEAR     57  56  99 CALM      30.10F FOG
MOLINE         CLEAR     61  56  83 CALM      30.08S
MOUNT VERNON   PTCLDY    61  55  82 NE3       30.07F
PITTSFIELD     MOCLDY    60  57  91 CALM      30.10S
QUINCY         PTCLDY    65  55  70 SE3       30.08F
ROCKFORD       PTCLDY    57  53  86 CALM      30.12S
$$


CITY           SKY/WX    TMP DP  RH WIND       PRES   REMARKS
BURLINGTON     CLEAR     61  59  93 CALM      30.07F
CEDAR RAPIDS   CLEAR     59  56  89 SE5       30.06S
DES MOINES     PTCLDY    65  58  78 S8        30.03F
KIRKSVILLE     PTCLDY    60  56  86 SE5       30.07F
OTTUMWA        CLEAR     61  57  87 S6        30.06F
ST LOUIS       PTCLDY    67  59  75 CALM      30.08F
$$


CITY           SKY/WX    TMP DP  RH WIND       PRES   REMARKS
TERRE HAUTE    CLEAR     58  57  97 CALM      30.07S
EVANSVILLE     PTCLDY    69  61  75 N5        30.05F
INDIANAPOLIS   CLEAR     63  56  78 NE8       30.06F
LAFAYETTE      CLEAR     57  55  93 CALM      30.08F
MADISON        CLEAR     54  52  93 CALM      30.10S
MILWAUKEE      MOCLDY    59  54  83 E3        30.11S
$$




USA.gov is the U.S. government's official web portal to all federal, state and local government web resources and services.